Wildfire 4

operational
NORAD ID: 57756 Int'l Des: 2023-133 Owner: SDA Country: US
LEOCIRCULARPOLAR

About Wildfire 4

Description loading...

Live Position

Loading 3D Globe...

Upcoming Passes

Altitude History

Altitude vs Time

uPlot chart will show altitude changes over time

Two-Line Element Set

1 57756U 23133A 25311.21287541 .00000136 00000-0 10800-3 0 9996
2 57756 81.0033 219.5436 0009000 235.7137 124.3169 13.86310217110363
Epoch: Nov 7, 2025 • Age: 11 hours

Current Status

Altitude 955.0 km
Velocity 7.38 km/s
Sub-Earth Point 45.45°N, 54.62°W
Launch Date Sep 2, 2023
Age 2.1 years
Type other

Technical Details

Classification Payload
Mass 300.00 kg
Dry Mass 300.00 kg
Total Mass 300.00 kg
Length 1.00 m
Diameter 0.40 m
Span 2.50 m
Shape Box + 2 panels
Manufacturer TYVAK/LMSSD
Bus Type Mavericks
Phase Status In Orbit
Owner/State SDA/US

Large Constellations

Loading constellations...